Overview Statistics Trail Chart Weather Telemetry Raw packets
 

This is the latest recevied weather packets stored in our database for station/object 4S6DRJ-13. If no packets are shown the sender has not sent any weather packets the latest 10 day(s).

<< 216 217 218 219 220 221 222 >>
Time Temp. Humidity Pressure Rain* Wind** Luminosity Snow
1788146818 29.44° C 78% 1010.3 hPa 0 mm 1.79 m/s, 307° 303 W/m² -
1788146757 29.44° C 77% 1010.3 hPa 0 mm 4.47 m/s, 300° 569 W/m² -
1788146696 29.44° C 77% 1010.4 hPa 0 mm 3.58 m/s, 311° 474 W/m² -
1788146636 29.44° C 78% 1010.6 hPa 0 mm 2.68 m/s, 343° 243 W/m² -
1788146574 29.44° C 78% 1010.3 hPa 0 mm 0.45 m/s, 60° 310 W/m² -
1788146513 29.44° C 78% 1010.4 hPa 0 mm 2.68 m/s, 322° 265 W/m² -
1788146453 29.44° C 78% 1010.4 hPa 0 mm 4.02 m/s, 295° 703 W/m² -
1788146392 29.44° C 78% 1010.5 hPa 0 mm 1.79 m/s, 312° 672 W/m² -
1788146331 29.44° C 79% 1010.4 hPa 0 mm 3.13 m/s, 301° 719 W/m² -
1788146270 28.89° C 79% 1010.4 hPa 0 mm 1.34 m/s, 330° 686 W/m² -
1788146218 28.89° C 79% 1010.3 hPa 0 mm 1.79 m/s, 265° 686 W/m² -
1788146148 28.89° C 79% 1010.4 hPa 0 mm 3.58 m/s, 327° 475 W/m² -
1788146087 28.89° C 80% 1010.5 hPa 0 mm 3.13 m/s, 303° 268 W/m² -
1788146026 28.89° C 80% 1010.4 hPa 0 mm 0.89 m/s, 342° 320 W/m² -
1788145965 28.89° C 80% 1010.4 hPa 0 mm 2.68 m/s, 279° 517 W/m² -
1788145904 28.89° C 80% 1010.4 hPa 0 mm 1.79 m/s, 104° 578 W/m² -
1788145843 28.89° C 81% 1010.5 hPa 0 mm 1.79 m/s, 309° 589 W/m² -
1788145782 28.89° C 81% 1010.4 hPa 0 mm 0.89 m/s, 247° 559 W/m² -
1788145721 28.89° C 81% 1010.5 hPa 0 mm 0.45 m/s, 184° 170 W/m² -
1788145660 28.89° C 81% 1010.6 hPa 0 mm 0.89 m/s, 268° 154 W/m² -
1788145600 28.89° C 81% 1010.4 hPa 0 mm 0.89 m/s, 170° 141 W/m² -
1788145539 28.89° C 81% 1010.3 hPa 0 mm 1.34 m/s, 121° 133 W/m² -
1788145477 28.89° C 81% 1010.5 hPa 0 mm 1.79 m/s, 331° 150 W/m² -
1788145416 28.89° C 81% 1010.3 hPa 0 mm 0.45 m/s, 206° 152 W/m² -
1788145355 28.89° C 81% 1010.5 hPa 0 mm 0.45 m/s, 165° 142 W/m² -

* Rain latest hour (hover to see other rain measurements)
** Current wind speed in m/s (hover to see current wind gust speed)